owner,sensor,date,latitude,longitude,vertical_datum,wind_speed,wind_to_direction,wind_speed_of_gust,qcFlag 
DISL,ioos:station:DISL:PPTA:1,2013-05-01T00:00:00Z,30.2791,-87.5561,0.0,4.12,99.2,-9999.0,'1111122,1111122,1111122' 
DISL,ioos:station:DISL:PPTA:1,2013-05-01T00:30:00Z,30.2791,-87.5561,0.0,4.41,100.4,-9999.0,'1111122,1111122,1111122' 
DISL,ioos:station:DISL:PPTA:1,2013-05-01T01:00:00Z,30.2791,-87.5561,0.0,4.35,96.8,-9999.0,'1111122,1111122,1111122' 
DISL,ioos:station:DISL:PPTA:1,2013-05-01T01:30:00Z,30.2791,-87.5561,0.0,4.7,102.4,-9999.0,'1111122,1111122,1111122' 
DISL,ioos:station:DISL:PPTA:1,2013-05-01T02:00:00Z,30.2791,-87.5561,0.0,4.62,102.2,-9999.0,'1111122,1111122,1111122' 
DISL,ioos:station:DISL:PPTA:1,2013-05-01T02:30:00Z,30.2791,-87.5561,0.0,5.01,103.4,-9999.0,'1111122,1111122,1111122' 
DISL,ioos:station:DISL:PPTA:1,2013-05-01T03:00:00Z,30.2791,-87.5561,0.0,4.82,98.6,-9999.0,'1111122,1111122,1111122' 
DISL,ioos:station:DISL:PPTA:1,2013-05-01T03:30:00Z,30.2791,-87.5561,0.0,4.29,99.4,-9999.0,'1111122,1111122,1111122' 
DISL,ioos:station:DISL:PPTA:1,2013-05-01T04:00:00Z,30.2791,-87.5561,0.0,3.9,90.3,-9999.0,'1111122,1111122,1111122' 
DISL,ioos:station:DISL:PPTA:1,2013-05-01T04:30:00Z,30.2791,-87.5561,0.0,4.48,92.8,-9999.0,'1111122,1111122,1111122' 
DISL,ioos:station:DISL:PPTA:1,2013-05-01T05:00:00Z,30.2791,-87.5561,0.0,5.32,90.0,-9999.0,'1111122,1111122,1111122' 
DISL,ioos:station:DISL:PPTA:1,2013-05-01T05:30:00Z,30.2791,-87.5561,0.0,4.54,99.3,-9999.0,'1111122,1111122,1111122' 
DISL,ioos:station:DISL:PPTA:1,2013-05-01T06:00:00Z,30.2791,-87.5561,0.0,5.13,99.6,-9999.0,'1111122,1111122,1111122' 
DISL,ioos:station:DISL:PPTA:1,2013-05-01T06:30:00Z,30.2791,-87.5561,0.0,5.23,95.4,-9999.0,'1111122,1111122,1111122' 
DISL,ioos:station:DISL:PPTA:1,2013-05-01T07:00:00Z,30.2791,-87.5561,0.0,4.52,94.8,-9999.0,'1111122,1111122,1111122' 
DISL,ioos:station:DISL:PPTA:1,2013-05-01T07:30:00Z,30.2791,-87.5561,0.0,4.77,80.5,-9999.0,'1111122,1111122,1111122' 
DISL,ioos:station:DISL:PPTA:1,2013-05-01T08:00:00Z,30.2791,-87.5561,0.0,5.41,75.62,-9999.0,'1111122,1111122,1111122' 
DISL,ioos:station:DISL:PPTA:1,2013-05-01T08:30:00Z,30.2791,-87.5561,0.0,6.35,77.74,-9999.0,'1111122,1111122,1111122' 
DISL,ioos:station:DISL:PPTA:1,2013-05-01T09:00:00Z,30.2791,-87.5561,0.0,6.16,76.83,-9999.0,'1111122,1111122,1111122' 
DISL,ioos:station:DISL:PPTA:1,2013-05-01T09:30:00Z,30.2791,-87.5561,0.0,6.27,75.55,-9999.0,'1111122,1111122,1111122' 
DISL,ioos:station:DISL:PPTA:1,2013-05-01T10:00:00Z,30.2791,-87.5561,0.0,5.44,81.1,-9999.0,'1111122,1111122,1111122' 
DISL,ioos:station:DISL:PPTA:1,2013-05-01T10:30:00Z,30.2791,-87.5561,0.0,6.38,75.3,-9999.0,'1111122,1111122,1111122' 
DISL,ioos:station:DISL:PPTA:1,2013-05-01T11:00:00Z,30.2791,-87.5561,0.0,6.21,75.81,-9999.0,'1111122,1111122,1111122' 
DISL,ioos:station:DISL:PPTA:1,2013-05-01T11:30:00Z,30.2791,-87.5561,0.0,6.18,75.69,-9999.0,'1111122,1111122,1111122' 
DISL,ioos:station:DISL:PPTA:1,2013-05-01T12:00:00Z,30.2791,-87.5561,0.0,6.11,76.27,-9999.0,'1111122,1111122,1111122' 
DISL,ioos:station:DISL:PPTA:1,2013-05-01T12:30:00Z,30.2791,-87.5561,0.0,6.7,76.77,-9999.0,'1111122,1111122,1111122' 
DISL,ioos:station:DISL:PPTA:1,2013-05-01T13:00:00Z,30.2791,-87.5561,0.0,7.9,77.15,-9999.0,'1111122,1111122,1111122' 
DISL,ioos:station:DISL:PPTA:1,2013-05-01T13:30:00Z,30.2791,-87.5561,0.0,8.35,75.46,-9999.0,'1111122,1111122,1111122' 
DISL,ioos:station:DISL:PPTA:1,2013-05-01T14:00:00Z,30.2791,-87.5561,0.0,6.13,89.1,-9999.0,'1111122,1111122,1111122' 
DISL,ioos:station:DISL:PPTA:1,2013-05-01T14:30:00Z,30.2791,-87.5561,0.0,7.6,77.47,-9999.0,'1111122,1111122,1111122' 
DISL,ioos:station:DISL:PPTA:1,2013-05-01T15:00:00Z,30.2791,-87.5561,0.0,7.41,88.9,-9999.0,'1111122,1111122,1111122' 
DISL,ioos:station:DISL:PPTA:1,2013-05-01T15:30:00Z,30.2791,-87.5561,0.0,6.83,89.1,-9999.0,'1111122,1111122,1111122' 
DISL,ioos:station:DISL:PPTA:1,2013-05-01T16:00:00Z,30.2791,-87.5561,0.0,7.2,82.2,-9999.0,'1111122,1111122,1111122' 
DISL,ioos:station:DISL:PPTA:1,2013-05-01T16:30:00Z,30.2791,-87.5561,0.0,8.24,76.08,-9999.0,'1111122,1111122,1111122' 
DISL,ioos:station:DISL:PPTA:1,2013-05-01T17:00:00Z,30.2791,-87.5561,0.0,9.93,74.07,-9999.0,'1111122,1111122,1111122' 
DISL,ioos:station:DISL:PPTA:1,2013-05-01T17:30:00Z,30.2791,-87.5561,0.0,7.58,78.92,-9999.0,'1111122,1111122,1111122' 
DISL,ioos:station:DISL:PPTA:1,2013-05-01T18:00:00Z,30.2791,-87.5561,0.0,7.78,80.2,-9999.0,'1111122,1111122,1111122' 
DISL,ioos:station:DISL:PPTA:1,2013-05-01T18:30:00Z,30.2791,-87.5561,0.0,9.22,75.49,-9999.0,'1111122,1111122,1111122' 
DISL,ioos:station:DISL:PPTA:1,2013-05-01T19:00:00Z,30.2791,-87.5561,0.0,10.34,74.31,-9999.0,'1111122,1111122,1111122' 
DISL,ioos:station:DISL:PPTA:1,2013-05-01T19:30:00Z,30.2791,-87.5561,0.0,10.49,72.83,-9999.0,'1111122,1111122,1111122' 
DISL,ioos:station:DISL:PPTA:1,2013-05-01T20:00:00Z,30.2791,-87.5561,0.0,11.15,73.29,-9999.0,'1111122,1111122,1111122' 
DISL,ioos:station:DISL:PPTA:1,2013-05-01T20:30:00Z,30.2791,-87.5561,0.0,10.34,73.27,-9999.0,'1111122,1111122,1111122' 
DISL,ioos:station:DISL:PPTA:1,2013-05-01T21:00:00Z,30.2791,-87.5561,0.0,9.19,75.95,-9999.0,'1111122,1111122,1111122' 
DISL,ioos:station:DISL:PPTA:1,2013-05-01T21:30:00Z,30.2791,-87.5561,0.0,9.84,77.22,-9999.0,'1111122,1111122,1111122' 
DISL,ioos:station:DISL:PPTA:1,2013-05-01T22:00:00Z,30.2791,-87.5561,0.0,8.94,78.86,-9999.0,'1111122,1111122,1111122' 
DISL,ioos:station:DISL:PPTA:1,2013-05-01T22:30:00Z,30.2791,-87.5561,0.0,10.57,73.03,-9999.0,'1111122,1111122,1111122' 
DISL,ioos:station:DISL:PPTA:1,2013-05-01T23:00:00Z,30.2791,-87.5561,0.0,10.97,71.87,-9999.0,'1111122,1111122,1111122' 
DISL,ioos:station:DISL:PPTA:1,2013-05-01T23:30:00Z,30.2791,-87.5561,0.0,10.69,72.08,-9999.0,'1111122,1111122,1111122' 
DISL,ioos:station:DISL:PPTA:1,2013-05-02T00:00:00Z,30.2791,-87.5561,0.0,10.84,74.3,-9999.0,'1111122,1111122,1111122' 
DISL,ioos:station:DISL:PPTA:1,2013-05-02T00:30:00Z,30.2791,-87.5561,0.0,9.55,76.13,-9999.0,'1111122,1111122,1111122' 
DISL,ioos:station:DISL:PPTA:1,2013-05-02T01:00:00Z,30.2791,-87.5561,0.0,9.06,78.83,-9999.0,'1111122,1111122,1111122' 
DISL,ioos:station:DISL:PPTA:1,2013-05-02T01:30:00Z,30.2791,-87.5561,0.0,9.34,83.0,-9999.0,'1111122,1111122,1111122' 
DISL,ioos:station:DISL:PPTA:1,2013-05-02T02:00:00Z,30.2791,-87.5561,0.0,9.05,82.3,-9999.0,'1111122,1111122,1111122' 
DISL,ioos:station:DISL:PPTA:1,2013-05-02T02:30:00Z,30.2791,-87.5561,0.0,8.7,79.53,-9999.0,'1111122,1111122,1111122' 
DISL,ioos:station:DISL:PPTA:1,2013-05-02T03:00:00Z,30.2791,-87.5561,0.0,8.91,78.42,-9999.0,'1111122,1111122,1111122' 
DISL,ioos:station:DISL:PPTA:1,2013-05-02T03:30:00Z,30.2791,-87.5561,0.0,9.47,74.29,-9999.0,'1111122,1111122,1111122' 
DISL,ioos:station:DISL:PPTA:1,2013-05-02T04:00:00Z,30.2791,-87.5561,0.0,10.34,72.77,-9999.0,'1111122,1111122,1111122' 
DISL,ioos:station:DISL:PPTA:1,2013-05-02T04:30:00Z,30.2791,-87.5561,0.0,9.01,76.94,-9999.0,'1111122,1111122,1111122' 
DISL,ioos:station:DISL:PPTA:1,2013-05-02T05:00:00Z,30.2791,-87.5561,0.0,10.06,72.81,-9999.0,'1111122,1111122,1111122' 
DISL,ioos:station:DISL:PPTA:1,2013-05-02T05:30:00Z,30.2791,-87.5561,0.0,9.33,72.98,-9999.0,'1111122,1111122,1111122' 
DISL,ioos:station:DISL:PPTA:1,2013-05-02T06:00:00Z,30.2791,-87.5561,0.0,8.34,78.69,-9999.0,'1111122,1111122,1111122' 
DISL,ioos:station:DISL:PPTA:1,2013-05-02T06:30:00Z,30.2791,-87.5561,0.0,8.57,91.8,-9999.0,'1111122,1111122,1111122' 
DISL,ioos:station:DISL:PPTA:1,2013-05-02T07:00:00Z,30.2791,-87.5561,0.0,8.35,81.8,-9999.0,'1111122,1111122,1111122' 
DISL,ioos:station:DISL:PPTA:1,2013-05-02T07:30:00Z,30.2791,-87.5561,0.0,10.96,71.7,-9999.0,'1111122,1111122,1111122' 
DISL,ioos:station:DISL:PPTA:1,2013-05-02T08:00:00Z,30.2791,-87.5561,0.0,10.4,72.34,-9999.0,'1111122,1111122,1111122' 
DISL,ioos:station:DISL:PPTA:1,2013-05-02T08:30:00Z,30.2791,-87.5561,0.0,10.69,72.11,-9999.0,'1111122,1111122,1111122' 
DISL,ioos:station:DISL:PPTA:1,2013-05-02T09:00:00Z,30.2791,-87.5561,0.0,10.66,70.53,-9999.0,'1111122,1111122,1111122' 
DISL,ioos:station:DISL:PPTA:1,2013-05-02T09:30:00Z,30.2791,-87.5561,0.0,8.88,70.47,-9999.0,'1111122,1111122,1111122' 
DISL,ioos:station:DISL:PPTA:1,2013-05-02T10:00:00Z,30.2791,-87.5561,0.0,6.35,38.87,-9999.0,'1111122,1111122,1111122' 
DISL,ioos:station:DISL:PPTA:1,2013-05-02T10:30:00Z,30.2791,-87.5561,0.0,4.88,29.52,-9999.0,'1111122,1111122,1111122' 
DISL,ioos:station:DISL:PPTA:1,2013-05-02T11:00:00Z,30.2791,-87.5561,0.0,4.82,30.8,-9999.0,'1111122,1111122,1111122' 
DISL,ioos:station:DISL:PPTA:1,2013-05-02T11:30:00Z,30.2791,-87.5561,0.0,5.01,39.61,-9999.0,'1111122,1111122,1111122' 
DISL,ioos:station:DISL:PPTA:1,2013-05-02T12:00:00Z,30.2791,-87.5561,0.0,5.38,46.23,-9999.0,'1111122,1111122,1111122' 
DISL,ioos:station:DISL:PPTA:1,2013-05-02T12:30:00Z,30.2791,-87.5561,0.0,5.61,41.77,-9999.0,'1111122,1111122,1111122' 
DISL,ioos:station:DISL:PPTA:1,2013-05-02T13:00:00Z,30.2791,-87.5561,0.0,4.44,39.48,-9999.0,'1111122,1111122,1111122' 
DISL,ioos:station:DISL:PPTA:1,2013-05-02T13:30:00Z,30.2791,-87.5561,0.0,4.47,44.54,-9999.0,'1111122,1111122,1111122' 
DISL,ioos:station:DISL:PPTA:1,2013-05-02T14:00:00Z,30.2791,-87.5561,0.0,4.68,47.85,-9999.0,'1111122,1111122,1111122' 
DISL,ioos:station:DISL:PPTA:1,2013-05-02T14:30:00Z,30.2791,-87.5561,0.0,4.4,44.21,-9999.0,'1111122,1111122,1111122' 
DISL,ioos:station:DISL:PPTA:1,2013-05-02T15:00:00Z,30.2791,-87.5561,0.0,4.68,46.61,-9999.0,'1111122,1111122,1111122' 
DISL,ioos:station:DISL:PPTA:1,2013-05-02T15:30:00Z,30.2791,-87.5561,0.0,5.95,60.5,-9999.0,'1111122,1111122,1111122' 
DISL,ioos:station:DISL:PPTA:1,2013-05-02T16:00:00Z,30.2791,-87.5561,0.0,5.44,68.35,-9999.0,'1111122,1111122,1111122' 
DISL,ioos:station:DISL:PPTA:1,2013-05-02T16:30:00Z,30.2791,-87.5561,0.0,7.73,71.18,-9999.0,'1111122,1111122,1111122' 
DISL,ioos:station:DISL:PPTA:1,2013-05-02T17:00:00Z,30.2791,-87.5561,0.0,6.81,71.26,-9999.0,'1111122,1111122,1111122' 
DISL,ioos:station:DISL:PPTA:1,2013-05-02T17:30:00Z,30.2791,-87.5561,0.0,7.65,72.12,-9999.0,'1111122,1111122,1111122' 
DISL,ioos:station:DISL:PPTA:1,2013-05-02T18:00:00Z,30.2791,-87.5561,0.0,8.06,73.07,-9999.0,'1111122,1111122,1111122' 
DISL,ioos:station:DISL:PPTA:1,2013-05-02T18:30:00Z,30.2791,-87.5561,0.0,8.1,75.45,-9999.0,'1111122,1111122,1111122' 
DISL,ioos:station:DISL:PPTA:1,2013-05-02T19:00:00Z,30.2791,-87.5561,0.0,7.9,71.28,-9999.0,'1111122,1111122,1111122' 
DISL,ioos:station:DISL:PPTA:1,2013-05-02T19:30:00Z,30.2791,-87.5561,0.0,7.49,71.15,-9999.0,'1111122,1111122,1111122' 
DISL,ioos:station:DISL:PPTA:1,2013-05-02T20:00:00Z,30.2791,-87.5561,0.0,6.09,73.54,-9999.0,'1111122,1111122,1111122' 
DISL,ioos:station:DISL:PPTA:1,2013-05-02T20:30:00Z,30.2791,-87.5561,0.0,4.96,74.46,-9999.0,'1111122,1111122,1111122' 
DISL,ioos:station:DISL:PPTA:1,2013-05-02T21:00:00Z,30.2791,-87.5561,0.0,5.57,72.43,-9999.0,'1111122,1111122,1111122' 
DISL,ioos:station:DISL:PPTA:1,2013-05-02T21:30:00Z,30.2791,-87.5561,0.0,4.7,73.67,-9999.0,'1111122,1111122,1111122' 
DISL,ioos:station:DISL:PPTA:1,2013-05-02T22:00:00Z,30.2791,-87.5561,0.0,3.55,90.9,-9999.0,'1111122,1111122,1111122' 
DISL,ioos:station:DISL:PPTA:1,2013-05-02T22:30:00Z,30.2791,-87.5561,0.0,3.52,96.7,-9999.0,'1111122,1111122,1111122' 
DISL,ioos:station:DISL:PPTA:1,2013-05-02T23:00:00Z,30.2791,-87.5561,0.0,2.25,91.4,-9999.0,'1111122,1111122,1111122' 
DISL,ioos:station:DISL:PPTA:1,2013-05-02T23:30:00Z,30.2791,-87.5561,0.0,2.78,81.8,-9999.0,'1111122,1111122,1111122' 
DISL,ioos:station:DISL:PPTA:1,2013-05-03T00:00:00Z,30.2791,-87.5561,0.0,2.03,78.83,-9999.0,'1111122,1111122,1111122' 
DISL,ioos:station:DISL:PPTA:1,2013-05-03T00:30:00Z,30.2791,-87.5561,0.0,1.45,96.8,-9999.0,'1111122,1111122,1111122' 
DISL,ioos:station:DISL:PPTA:1,2013-05-03T01:00:00Z,30.2791,-87.5561,0.0,5.45,47.71,-9999.0,'1111122,1111122,1111122' 
DISL,ioos:station:DISL:PPTA:1,2013-05-03T01:30:00Z,30.2791,-87.5561,0.0,4.46,61.87,-9999.0,'1111122,1111122,1111122' 
DISL,ioos:station:DISL:PPTA:1,2013-05-03T02:00:00Z,30.2791,-87.5561,0.0,7.2,71.11,-9999.0,'1111122,1111122,1111122' 
DISL,ioos:station:DISL:PPTA:1,2013-05-03T02:30:00Z,30.2791,-87.5561,0.0,5.57,73.78,-9999.0,'1111122,1111122,1111122' 
DISL,ioos:station:DISL:PPTA:1,2013-05-03T03:00:00Z,30.2791,-87.5561,0.0,4.05,74.81,-9999.0,'1111122,1111122,1111122' 
DISL,ioos:station:DISL:PPTA:1,2013-05-03T03:30:00Z,30.2791,-87.5561,0.0,5.11,71.47,-9999.0,'1111122,1111122,1111122' 
DISL,ioos:station:DISL:PPTA:1,2013-05-03T04:00:00Z,30.2791,-87.5561,0.0,6.96,61.85,-9999.0,'1111122,1111122,1111122' 
DISL,ioos:station:DISL:PPTA:1,2013-05-03T04:30:00Z,30.2791,-87.5561,0.0,7.08,64.22,-9999.0,'1111122,1111122,1111122' 
DISL,ioos:station:DISL:PPTA:1,2013-05-03T05:00:00Z,30.2791,-87.5561,0.0,6.99,63.63,-9999.0,'1111122,1111122,1111122' 
DISL,ioos:station:DISL:PPTA:1,2013-05-03T05:30:00Z,30.2791,-87.5561,0.0,6.3,63.45,-9999.0,'1111122,1111122,1111122' 
DISL,ioos:station:DISL:PPTA:1,2013-05-03T06:00:00Z,30.2791,-87.5561,0.0,7.08,65.84,-9999.0,'1111122,1111122,1111122' 
DISL,ioos:station:DISL:PPTA:1,2013-05-03T06:30:00Z,30.2791,-87.5561,0.0,6.76,69.37,-9999.0,'1111122,1111122,1111122' 
DISL,ioos:station:DISL:PPTA:1,2013-05-03T07:00:00Z,30.2791,-87.5561,0.0,5.9,66.07,-9999.0,'1111122,1111122,1111122' 
DISL,ioos:station:DISL:PPTA:1,2013-05-03T07:30:00Z,30.2791,-87.5561,0.0,5.58,66.96,-9999.0,'1111122,1111122,1111122' 
DISL,ioos:station:DISL:PPTA:1,2013-05-03T08:00:00Z,30.2791,-87.5561,0.0,5.71,58.28,-9999.0,'1111122,1111122,1111122' 
DISL,ioos:station:DISL:PPTA:1,2013-05-03T08:30:00Z,30.2791,-87.5561,0.0,6.74,62.89,-9999.0,'1111122,1111122,1111122' 
DISL,ioos:station:DISL:PPTA:1,2013-05-03T09:00:00Z,30.2791,-87.5561,0.0,5.82,50.67,-9999.0,'1111122,1111122,1111122' 
DISL,ioos:station:DISL:PPTA:1,2013-05-03T09:30:00Z,30.2791,-87.5561,0.0,6.13,56.33,-9999.0,'1111122,1111122,1111122' 
DISL,ioos:station:DISL:PPTA:1,2013-05-03T10:00:00Z,30.2791,-87.5561,0.0,4.38,42.23,-9999.0,'1111122,1111122,1111122' 
DISL,ioos:station:DISL:PPTA:1,2013-05-03T10:30:00Z,30.2791,-87.5561,0.0,5.15,44.28,-9999.0,'1111122,1111122,1111122' 
DISL,ioos:station:DISL:PPTA:1,2013-05-03T11:00:00Z,30.2791,-87.5561,0.0,5.33,48.82,-9999.0,'1111122,1111122,1111122' 
DISL,ioos:station:DISL:PPTA:1,2013-05-03T11:30:00Z,30.2791,-87.5561,0.0,5.71,53.87,-9999.0,'1111122,1111122,1111122' 
DISL,ioos:station:DISL:PPTA:1,2013-05-03T12:00:00Z,30.2791,-87.5561,0.0,6.0,54.02,-9999.0,'1111122,1111122,1111122' 
DISL,ioos:station:DISL:PPTA:1,2013-05-03T12:30:00Z,30.2791,-87.5561,0.0,6.19,58.49,-9999.0,'1111122,1111122,1111122' 
DISL,ioos:station:DISL:PPTA:1,2013-05-03T13:00:00Z,30.2791,-87.5561,0.0,5.32,54.53,-9999.0,'1111122,1111122,1111122' 
DISL,ioos:station:DISL:PPTA:1,2013-05-03T13:30:00Z,30.2791,-87.5561,0.0,4.14,42.86,-9999.0,'1111122,1111122,1111122' 
DISL,ioos:station:DISL:PPTA:1,2013-05-03T14:00:00Z,30.2791,-87.5561,0.0,4.23,52.13,-9999.0,'1111122,1111122,1111122' 
DISL,ioos:station:DISL:PPTA:1,2013-05-03T14:30:00Z,30.2791,-87.5561,0.0,5.48,68.11,-9999.0,'1111122,1111122,1111122' 
DISL,ioos:station:DISL:PPTA:1,2013-05-03T15:00:00Z,30.2791,-87.5561,0.0,5.21,65.65,-9999.0,'1111122,1111122,1111122' 
DISL,ioos:station:DISL:PPTA:1,2013-05-03T15:30:00Z,30.2791,-87.5561,0.0,4.77,74.0,-9999.0,'1111122,1111122,1111122' 
DISL,ioos:station:DISL:PPTA:1,2013-05-03T16:00:00Z,30.2791,-87.5561,0.0,6.32,72.79,-9999.0,'1111122,1111122,1111122' 
DISL,ioos:station:DISL:PPTA:1,2013-05-03T16:30:00Z,30.2791,-87.5561,0.0,4.89,76.87,-9999.0,'1111122,1111122,1111122' 
DISL,ioos:station:DISL:PPTA:1,2013-05-03T17:00:00Z,30.2791,-87.5561,0.0,4.43,72.85,-9999.0,'1111122,1111122,1111122' 
DISL,ioos:station:DISL:PPTA:1,2013-05-03T17:30:00Z,30.2791,-87.5561,0.0,3.95,73.54,-9999.0,'1111122,1111122,1111122' 
DISL,ioos:station:DISL:PPTA:1,2013-05-03T18:00:00Z,30.2791,-87.5561,0.0,3.43,62.34,-9999.0,'1111122,1111122,1111122' 
DISL,ioos:station:DISL:PPTA:1,2013-05-03T18:30:00Z,30.2791,-87.5561,0.0,3.64,80.8,-9999.0,'1111122,1111122,1111122' 
DISL,ioos:station:DISL:PPTA:1,2013-05-03T19:00:00Z,30.2791,-87.5561,0.0,4.6,77.32,-9999.0,'1111122,1111122,1111122' 
DISL,ioos:station:DISL:PPTA:1,2013-05-03T19:30:00Z,30.2791,-87.5561,0.0,5.34,72.06,-9999.0,'1111122,1111122,1111122' 
DISL,ioos:station:DISL:PPTA:1,2013-05-03T20:00:00Z,30.2791,-87.5561,0.0,3.81,78.74,-9999.0,'1111122,1111122,1111122' 
DISL,ioos:station:DISL:PPTA:1,2013-05-03T20:30:00Z,30.2791,-87.5561,0.0,3.7,81.1,-9999.0,'1111122,1111122,1111122' 
DISL,ioos:station:DISL:PPTA:1,2013-05-03T21:00:00Z,30.2791,-87.5561,0.0,4.0,64.32,-9999.0,'1111122,1111122,1111122' 
DISL,ioos:station:DISL:PPTA:1,2013-05-03T21:30:00Z,30.2791,-87.5561,0.0,4.86,72.62,-9999.0,'1111122,1111122,1111122' 
DISL,ioos:station:DISL:PPTA:1,2013-05-03T22:00:00Z,30.2791,-87.5561,0.0,2.55,54.44,-9999.0,'1111122,1111122,1111122' 
DISL,ioos:station:DISL:PPTA:1,2013-05-03T22:30:00Z,30.2791,-87.5561,0.0,4.38,48.89,-9999.0,'1111122,1111122,1111122' 
DISL,ioos:station:DISL:PPTA:1,2013-05-03T23:00:00Z,30.2791,-87.5561,0.0,3.62,87.1,-9999.0,'1111122,1111122,1111122' 
DISL,ioos:station:DISL:PPTA:1,2013-05-03T23:30:00Z,30.2791,-87.5561,0.0,2.67,77.73,-9999.0,'1111122,1111122,1111122' 
DISL,ioos:station:DISL:PPTA:1,2013-05-04T00:00:00Z,30.2791,-87.5561,0.0,3.33,78.61,-9999.0,'1111122,1111122,1111122' 
DISL,ioos:station:DISL:PPTA:1,2013-05-04T00:30:00Z,30.2791,-87.5561,0.0,2.73,71.12,-9999.0,'1111122,1111122,1111122' 
DISL,ioos:station:DISL:PPTA:1,2013-05-04T01:00:00Z,30.2791,-87.5561,0.0,2.19,34.81,-9999.0,'1111122,1111122,1111122' 
DISL,ioos:station:DISL:PPTA:1,2013-05-04T01:30:00Z,30.2791,-87.5561,0.0,1.43,31.23,-9999.0,'1111122,1111122,1111122' 
DISL,ioos:station:DISL:PPTA:1,2013-05-04T02:00:00Z,30.2791,-87.5561,0.0,8.23,247.0,-9999.0,'1111122,1111122,1111122' 
DISL,ioos:station:DISL:PPTA:1,2013-05-04T02:30:00Z,30.2791,-87.5561,0.0,8.18,254.7,-9999.0,'1111122,1111122,1111122' 
DISL,ioos:station:DISL:PPTA:1,2013-05-04T03:00:00Z,30.2791,-87.5561,0.0,7.76,263.4,-9999.0,'1111122,1111122,1111122' 
DISL,ioos:station:DISL:PPTA:1,2013-05-04T03:30:00Z,30.2791,-87.5561,0.0,7.21,275.9,-9999.0,'1111122,1111122,1111122' 
DISL,ioos:station:DISL:PPTA:1,2013-05-04T04:00:00Z,30.2791,-87.5561,0.0,8.22,274.6,-9999.0,'1111122,1111122,1111122' 
DISL,ioos:station:DISL:PPTA:1,2013-05-04T04:30:00Z,30.2791,-87.5561,0.0,8.34,275.7,-9999.0,'1111122,1111122,1111122' 
DISL,ioos:station:DISL:PPTA:1,2013-05-04T05:00:00Z,30.2791,-87.5561,0.0,9.23,272.7,-9999.0,'1111122,1111122,1111122' 
DISL,ioos:station:DISL:PPTA:1,2013-05-04T05:30:00Z,30.2791,-87.5561,0.0,8.83,270.0,-9999.0,'1111122,1111122,1111122' 
DISL,ioos:station:DISL:PPTA:1,2013-05-04T06:00:00Z,30.2791,-87.5561,0.0,7.75,279.9,-9999.0,'1111122,1111122,1111122' 
DISL,ioos:station:DISL:PPTA:1,2013-05-04T06:30:00Z,30.2791,-87.5561,0.0,8.14,283.2,-9999.0,'1111122,1111122,1111122' 
DISL,ioos:station:DISL:PPTA:1,2013-05-04T07:00:00Z,30.2791,-87.5561,0.0,8.41,286.9,-9999.0,'1111122,1111122,1111122' 
DISL,ioos:station:DISL:PPTA:1,2013-05-04T07:30:00Z,30.2791,-87.5561,0.0,7.69,289.5,-9999.0,'1111122,1111122,1111122' 
DISL,ioos:station:DISL:PPTA:1,2013-05-04T08:00:00Z,30.2791,-87.5561,0.0,7.04,289.7,-9999.0,'1111122,1111122,1111122' 
DISL,ioos:station:DISL:PPTA:1,2013-05-04T08:30:00Z,30.2791,-87.5561,0.0,8.86,298.9,-9999.0,'1111122,1111122,1111122' 
DISL,ioos:station:DISL:PPTA:1,2013-05-04T09:00:00Z,30.2791,-87.5561,0.0,8.72,302.1,-9999.0,'1111122,1111122,1111122' 
DISL,ioos:station:DISL:PPTA:1,2013-05-04T09:30:00Z,30.2791,-87.5561,0.0,8.71,291.8,-9999.0,'1111122,1111122,1111122' 
DISL,ioos:station:DISL:PPTA:1,2013-05-04T10:00:00Z,30.2791,-87.5561,0.0,7.5,287.2,-9999.0,'1111122,1111122,1111122' 
DISL,ioos:station:DISL:PPTA:1,2013-05-04T10:30:00Z,30.2791,-87.5561,0.0,6.88,281.5,-9999.0,'1111122,1111122,1111122' 
DISL,ioos:station:DISL:PPTA:1,2013-05-04T11:00:00Z,30.2791,-87.5561,0.0,7.82,288.9,-9999.0,'1111122,1111122,1111122' 
DISL,ioos:station:DISL:PPTA:1,2013-05-04T11:30:00Z,30.2791,-87.5561,0.0,6.37,289.3,-9999.0,'1111122,1111122,1111122' 
DISL,ioos:station:DISL:PPTA:1,2013-05-04T12:00:00Z,30.2791,-87.5561,0.0,6.14,295.5,-9999.0,'1111122,1111122,1111122' 
DISL,ioos:station:DISL:PPTA:1,2013-05-04T12:30:00Z,30.2791,-87.5561,0.0,6.2,286.3,-9999.0,'1111122,1111122,1111122' 
DISL,ioos:station:DISL:PPTA:1,2013-05-04T13:00:00Z,30.2791,-87.5561,0.0,7.34,283.9,-9999.0,'1111122,1111122,1111122' 
DISL,ioos:station:DISL:PPTA:1,2013-05-04T13:30:00Z,30.2791,-87.5561,0.0,6.36,283.9,-9999.0,'1111122,1111122,1111122' 
DISL,ioos:station:DISL:PPTA:1,2013-05-04T14:00:00Z,30.2791,-87.5561,0.0,6.92,276.1,-9999.0,'1111122,1111122,1111122' 
DISL,ioos:station:DISL:PPTA:1,2013-05-04T14:30:00Z,30.2791,-87.5561,0.0,7.28,280.8,-9999.0,'1111122,1111122,1111122' 
DISL,ioos:station:DISL:PPTA:1,2013-05-04T15:00:00Z,30.2791,-87.5561,0.0,8.95,274.7,-9999.0,'1111122,1111122,1111122' 
DISL,ioos:station:DISL:PPTA:1,2013-05-04T15:30:00Z,30.2791,-87.5561,0.0,7.91,276.0,-9999.0,'1111122,1111122,1111122' 
DISL,ioos:station:DISL:PPTA:1,2013-05-04T16:00:00Z,30.2791,-87.5561,0.0,7.61,298.8,-9999.0,'1111122,1111122,1111122' 
DISL,ioos:station:DISL:PPTA:1,2013-05-04T16:30:00Z,30.2791,-87.5561,0.0,7.53,275.6,-9999.0,'1111122,1111122,1111122' 
DISL,ioos:station:DISL:PPTA:1,2013-05-04T17:00:00Z,30.2791,-87.5561,0.0,7.16,289.0,-9999.0,'1111122,1111122,1111122' 
DISL,ioos:station:DISL:PPTA:1,2013-05-04T17:30:00Z,30.2791,-87.5561,0.0,7.23,293.2,-9999.0,'1111122,1111122,1111122' 
DISL,ioos:station:DISL:PPTA:1,2013-05-04T18:00:00Z,30.2791,-87.5561,0.0,7.13,267.9,-9999.0,'1111122,1111122,1111122' 
DISL,ioos:station:DISL:PPTA:1,2013-05-04T18:30:00Z,30.2791,-87.5561,0.0,7.29,269.5,-9999.0,'1111122,1111122,1111122' 
DISL,ioos:station:DISL:PPTA:1,2013-05-04T19:00:00Z,30.2791,-87.5561,0.0,7.63,283.1,-9999.0,'1111122,1111122,1111122' 
DISL,ioos:station:DISL:PPTA:1,2013-05-04T19:30:00Z,30.2791,-87.5561,0.0,6.9,275.6,-9999.0,'1111122,1111122,1111122' 
DISL,ioos:station:DISL:PPTA:1,2013-05-04T20:00:00Z,30.2791,-87.5561,0.0,6.54,253.6,-9999.0,'1111122,1111122,1111122' 
DISL,ioos:station:DISL:PPTA:1,2013-05-04T20:30:00Z,30.2791,-87.5561,0.0,7.14,259.7,-9999.0,'1111122,1111122,1111122' 
DISL,ioos:station:DISL:PPTA:1,2013-05-04T21:00:00Z,30.2791,-87.5561,0.0,6.45,262.5,-9999.0,'1111122,1111122,1111122' 
DISL,ioos:station:DISL:PPTA:1,2013-05-04T21:30:00Z,30.2791,-87.5561,0.0,6.46,279.4,-9999.0,'1111122,1111122,1111122' 
DISL,ioos:station:DISL:PPTA:1,2013-05-04T22:00:00Z,30.2791,-87.5561,0.0,5.74,277.4,-9999.0,'1111122,1111122,1111122' 
DISL,ioos:station:DISL:PPTA:1,2013-05-04T22:30:00Z,30.2791,-87.5561,0.0,5.22,282.2,-9999.0,'1111122,1111122,1111122' 
DISL,ioos:station:DISL:PPTA:1,2013-05-04T23:00:00Z,30.2791,-87.5561,0.0,5.58,285.1,-9999.0,'1111122,1111122,1111122' 
DISL,ioos:station:DISL:PPTA:1,2013-05-04T23:30:00Z,30.2791,-87.5561,0.0,4.23,279.6,-9999.0,'1111122,1111122,1111122' 
DISL,ioos:station:DISL:PPTA:1,2013-05-05T00:00:00Z,30.2791,-87.5561,0.0,3.63,292.1,-9999.0,'1111122,1111122,1111122' 
DISL,ioos:station:DISL:PPTA:1,2013-05-05T00:30:00Z,30.2791,-87.5561,0.0,2.5,283.4,-9999.0,'1111122,1111122,1111122' 
DISL,ioos:station:DISL:PPTA:1,2013-05-05T01:00:00Z,30.2791,-87.5561,0.0,2.31,274.4,-9999.0,'1111122,1111122,1111122' 
DISL,ioos:station:DISL:PPTA:1,2013-05-05T01:30:00Z,30.2791,-87.5561,0.0,1.41,267.2,-9999.0,'1111122,1111122,1111122' 
DISL,ioos:station:DISL:PPTA:1,2013-05-05T02:00:00Z,30.2791,-87.5561,0.0,1.36,266.6,-9999.0,'1111122,1111122,1111122' 
DISL,ioos:station:DISL:PPTA:1,2013-05-05T02:30:00Z,30.2791,-87.5561,0.0,0.85,267.3,-9999.0,'1111122,1111122,1111122' 
DISL,ioos:station:DISL:PPTA:1,2013-05-05T03:00:00Z,30.2791,-87.5561,0.0,1.8,266.5,-9999.0,'1111122,1111122,1111122' 
DISL,ioos:station:DISL:PPTA:1,2013-05-05T03:30:00Z,30.2791,-87.5561,0.0,1.38,274.7,-9999.0,'1111122,1111122,1111122' 
DISL,ioos:station:DISL:PPTA:1,2013-05-05T04:00:00Z,30.2791,-87.5561,0.0,1.24,208.5,-9999.0,'1111122,1111122,1111122' 
DISL,ioos:station:DISL:PPTA:1,2013-05-05T04:30:00Z,30.2791,-87.5561,0.0,1.29,217.5,-9999.0,'1111122,1111122,1111122' 